Location: Zilina
(0.0000°N, 18.7333°E)
Time: 13:35:13
(UTC+02:00)

Daily predictions for brighter satellites

Satellite Brightness Start Highest point End
(mag) Time Altitude Azimuth Time Altitude Azimuth Time Altitude Azimuth
H-10 deb 3.7 18:52:19 10° WSW 18:56:34 78° S 19:26:18 10° E
H-10 deb 3.7 18:52:19 10° WSW 18:56:34 78° S 19:26:17 10° E
Ariane H10-3 3.3 19:01:10 10° NW 19:03:46 34° NNE 19:11:20 10° E
Okean O Rocket 1.6 18:59:26 10° SSE 19:03:53 69° ENE 19:08:17 10° N
Spelda 2.3 19:01:45 10° W 19:04:20 83° N 19:10:11 10° E
Sakura Rocket 3.0 19:02:02 10° SW 19:05:41 51° SSE 19:10:07 10° ENE
Cosmos 1689 Rocket 3.3 19:04:43 10° NE 19:06:50 20° E 19:08:58 10° SSE
Lacrosse 5 rocket 1.9 19:02:55 10° NNW 19:07:17 51° ENE 19:11:46 10° SE
Cosmos 1503 Rocket 4.3 19:03:45 10° S 19:08:40 45° ESE 19:13:34 10° NNE
CSL-04 DEB 4.3 19:05:45 10° NNE 19:09:43 89° ESE 19:13:39 10° SSW
YAOGAN 1 4.3 19:08:15 10° ESE 19:10:46 15° ENE 19:13:16 10° NE
CZ-4B R/B 2.8 19:08:14 10° N 19:11:05 39° W 19:13:55 10° SSW
H-2A R/B 2.8 19:07:22 10° SE 19:11:35 29° ENE 19:15:46 10° NNE
Cosmos 1939 Rocket 3.6 19:08:20 10° S 19:12:25 60° WSW 19:16:28 10° NNW
NOSS 3-3 (A) 4.2 19:08:05 10° SSW 19:13:27 63° WNW 19:18:52 10° NNE
NOSS 3-3 (C) 4.2 19:08:09 10° SSW 19:13:34 64° WNW 19:19:00 10° NNE
Okean-O 4.4 19:15:15 10° ESE 19:17:36 14° ENE 19:19:55 10° NE
Meteor 2-15 Rocket 4.4 19:12:26 10° S 19:18:27 65° E 19:24:26 10° NNE
Skynet4D Del rocket 3.5 19:13:43 10° SW 19:19:03 71° SSE 19:24:35 10° ENE
DMSP B5D2-2 4.4 19:14:48 10° NNE 19:19:49 46° ESE 19:24:50 10° S
CZ-2C R/B 3.2 19:15:18 10° S 19:20:03 71° WSW 19:24:58 10° NNW
Cosmos 540 Rocket 4.1 19:15:49 10° NNE 19:20:22 33° ENE 19:24:57 10° SE
USA 229 DEB 4.5 19:13:20 10° N 19:20:32 41° ENE 19:27:44 10° SE
Cosmos 1766 Rocket 3.9 19:17:53 10° NNE 19:22:08 45° E 19:26:24 10° SSE
H-2A R/B 2.8 19:19:06 10° S 19:22:54 62° WSW 19:26:48 10° NNW
Feng Yun 1-1 Rocket 4.3 19:22:49 10° SSE 19:28:12 55° ENE 19:33:28 10° N
Meteor 2-3 Rocket 3.9 19:22:49 10° N 19:28:21 75° W 19:33:55 10° S
Cosmos 1553 Rocket 4.1 19:26:20 10° SSE 19:32:12 51° E 19:38:05 10° NNE
ISS -1.9 19:29:35 10° WSW 19:32:39 33° NW 19:35:43 10° NNE
CZ-2C R/B 3.1 19:29:02 10° WSW 19:32:52 32° NW 19:36:32 10° NNE
ARIANE 5 R/B 2.0 19:26:52 10° W 19:33:17 85° N 19:34:46 21° E
Ariane H10 2.0 19:33:00 10° W 19:35:39 45° S 19:36:50 24° SE
Cosmos 921 Rocket 3.8 19:32:46 10° NNE 19:36:21 28° E 19:38:07 21° ESE
Cosmos 1655 Rocket 4.3 19:32:02 10° N 19:38:14 72° W 19:44:30 10° S
NOSS 3-1 (A) 4.5 19:31:17 10° N 19:39:56 58° ENE 19:47:59 13° SE
Cosmos 1354 Rocket 4.0 19:38:20 10° SSW 19:43:35 83° WNW 19:48:47 10° N
Cosmos 1603 3.8 19:39:11 10° N 19:44:35 51° ENE 19:48:40 17° SE
CZ-2C R/B 4.0 19:39:24 10° N 19:44:39 44° WNW 19:49:58 10° SSW
Cosmos 2278 Rocket 2.6 19:40:01 10° S 19:45:15 39° ESE 19:50:28 10° NE
Meteor 2-16 Rocket 4.5 19:39:18 10° N 19:45:25 84° W 19:51:31 10° S
Cosmos 1437 Rocket 2.7 19:42:41 10° S 19:46:29 81° W 19:50:18 10° N
Cosmos 1417 Rocket 4.5 19:40:56 10° S 19:47:07 59° E 19:53:11 10° NNE
Cosmos 1606 3.2 19:47:02 10° SSW 19:50:43 59° W 19:54:24 10° N
CZ-3 Stage 3 4.5 19:49:05 10° WSW 19:51:33 21° S 19:55:01 14° SSE
Cosmos 1570 Rocket 4.4 19:47:16 10° N 19:52:09 41° ENE 19:54:21 28° SE
Centaur AC-119 1.7 19:50:52 10° NW 19:53:00 70° NNE 19:53:59 40° ESE
ATLAS 5 CENTAUR R/B 3.8 19:49:12 10° NNW 19:54:05 72° ENE 20:15:04 10° SSE
ERS-2 2.1 19:53:29 10° N 19:57:06 83° WNW 20:00:44 10° SSW
FALCON 9 DEB 3.0 19:54:10 10° NNW 19:57:34 84° NE 19:58:18 53° SE
CSL-04 Rocket 4.4 19:58:56 30° E 19:59:27 30° ENE 20:04:01 10° NNE
Ariane H10 3.2 19:56:39 10° W 19:59:43 64° S 20:01:34 34° ESE
Cosmos 1408 Rocket 3.5 19:56:00 10° N 20:00:25 65° E 20:02:44 27° SSE
GENESIS II 4.5 19:59:43 10° NNW 20:03:30 63° WSW 20:05:08 31° S
ARIANE 5 DEB (SYLDA) 4.1 20:02:34 10° W 20:02:37 10° W 20:02:37 10° W
Meteosat 1 Rocket2 2.7 20:02:52 10° WSW 20:06:29 76° NNW 20:07:45 40° NE
CZ-4 R/B 1.9 20:04:35 14° S 20:08:09 61° WSW 20:12:11 10° NNW
Ariane 3 Deb 4.4 19:44:06 10° W 20:09:28 63° NNW 20:12:35 27° ENE
Intercosmos 24 4.2 20:06:34 10° S 20:12:18 77° E 20:16:20 10° N
Cosmos 1943 3.3 20:10:10 10° NNW 20:15:49 76° WSW 20:19:12 25° S
Cosmos 1933 3.2 20:15:50 54° S 20:16:43 90° NNE 20:20:45 10° N
Cosmos 1862 3.4 20:15:33 10° N 20:19:33 74° W 20:20:16 57° SSW
GPS 2-15 Rocket1 3.8 20:18:18 10° SW 20:22:23 43° S 20:22:23 43° S
Ariane 42L Rocket 4.5 20:19:07 10° W 20:25:45 63° N 20:32:22 28° ENE
Cosmos 1743 Rocket 4.4 20:32:39 10° N 20:35:38 43° N 20:35:38 43° N
Cosmos 883 Rocket 4.3 20:35:05 44° S 20:37:13 81° E 20:43:30 10° N
Centaur AC-64 3.5 20:34:46 10° WNW 20:38:54 40° WNW 20:38:54 40° WNW
Centaur D AC-28 4.1 20:37:29 10° SW 20:44:02 24° S 20:44:02 24° S
CZ-3B R/B 3.6 20:28:32 10° WSW 20:45:31 66° SSE 20:46:56 59° ESE
ARIANE 5 R/B 3.1 20:32:18 10° W 20:56:13 86° N 20:56:16 86° NNE
